This is the latest recevied weather packets stored in our database for station/object KG7QQL. If no packets are shown the sender has not sent any weather packets the latest 1 day(s).
| Time | Temp. | Humidity | Pressure | Rain* | Wind** | Luminosity | Snow |
|---|---|---|---|---|---|---|---|
| 1778034696 | 17.78° C | 72% | - | 0 mm | - | - | - |
| 1778034091 | 17.78° C | 72% | - | 0 mm | - | - | - |
| 1778033788 | 17.78° C | 72% | - | 0 mm | - | - | - |
| 1778033485 | 18.33° C | 71% | - | 0 mm | - | - | - |
| 1778033182 | 18.33° C | 71% | - | 0 mm | - | - | - |
| 1778032577 | 18.33° C | 71% | - | 0 mm | - | - | - |
| 1778032274 | 17.78° C | 71% | - | 0 mm | - | - | - |
| 1778031972 | 18.33° C | 71% | - | 0 mm | - | - | - |
| 1778031667 | 18.33° C | 71% | - | 0 mm | - | - | - |
| 1778031366 | 18.33° C | 71% | - | 0 mm | - | - | - |
| 1778030758 | 18.33° C | 70% | - | 0 mm | - | - | - |
| 1778030455 | 18.33° C | 71% | - | 0 mm | - | - | - |
| 1778030153 | 18.33° C | 71% | - | 0 mm | - | - | - |
| 1778029848 | 18.33° C | 71% | - | 0 mm | - | - | - |
| 1778029239 | 18.33° C | 70% | - | 0 mm | - | - | - |
| 1778028936 | 19.44° C | 69% | - | 0 mm | - | - | - |
| 1778028329 | 17.78° C | 73% | - | 0 mm | - | - | - |
| 1778028026 | 17.78° C | 73% | - | 0 mm | - | - | - |
| 1778026811 | 18.33° C | 71% | - | 0 mm | - | - | - |
| 1778025902 | 17.78° C | 73% | - | 0 mm | - | - | - |
| 1778024085 | 18.89° C | 71% | - | 0 mm | - | - | - |
| 1778023177 | 18.89° C | 71% | - | 0 mm | - | - | - |
| 1778022874 | 18.89° C | 71% | - | 0 mm | - | - | - |
| 1778022270 | 17.78° C | 73% | - | 0 mm | - | - | - |
| 1778021966 | 16.67° C | 74% | - | 0 mm | - | - | - |
* Rain latest hour (hover to see other rain measurements)
** Current wind speed in m/s (hover to see current wind gust speed)